FW1418 Weather Reports


Display with metric or nautical units.
time (UTC)temp
F
wind
direction
speed
MPH
gust
MPH
rain 1hr
in
rain 24hr
in
rain mn
in
humidity
%
barometer
mb
20260502163010 45 350 4.0 14.0 0.00 0.00 0.00 41 1019.0
20260502161502 45 329 3.0 14.0 0.00 0.00 0.00 43 1019.2
20260502151603 42 291 6.0 12.0 0.00 0.00 0.00 53 1019.4
20260502123026 37 202 2.0 7.0 0.00 0.00 0.00 78 1019.9
20260502121525 36 246 2.0 8.0 0.00 0.00 0.00 80 1020.0
20260502114518 34 265 0.0 4.0 0.00 0.00 0.00 85 1019.9
20260502113014 32 243 1.0 3.0 0.00 0.00 0.00 88 1019.9
20260502111511 30 244 1.0 3.0 0.00 0.00 0.00 89 1019.8
20260502110012 29 243 1.0 3.0 0.00 0.00 0.00 91 1019.8
20260502104510 28 238 2.0 4.0 0.00 0.00 0.00 92 1019.7
20260502103011 27 237 2.0 4.0 0.00 0.00 0.00 92 1019.8
20260502101528 27 237 2.0 3.0 0.00 0.00 0.00 93 1019.8
20260502091505 28 237 2.0 3.0 0.00 0.00 0.00 92 1019.5
20260502080110 28 231 2.0 3.0 0.00 0.00 0.00 93 1019.2
20260502070114 29 229 2.0 4.0 0.00 0.00 0.00 93 1019.3
20260502064557 29 229 2.0 3.0 0.00 0.00 0.00 93 1019.4
20260502063057 29 228 2.0 3.0 0.00 0.00 0.00 93 1019.3
20260502061551 30 228 1.0 3.0 0.00 0.00 0.00 93 1019.4
20260502060048 30 228 2.0 3.0 0.00 0.00 0.00 93 1019.4
20260502054548 30 228 2.0 3.0 0.00 0.00 0.00 92 1019.4
20260502053047 30 228 1.0 3.0 0.00 0.00 0.00 93 1019.3
20260502051603 30 228 1.0 3.0 0.00 0.00 0.00 93 1019.4
20260502050043 30 227 2.0 3.0 0.00 0.00 0.00 92 1019.3
20260502044545 30 227 2.0 3.0 0.00 0.00 0.00 92 1019.1
20260502043040 30 227 1.0 3.0 0.00 0.00 0.00 91 1019.1
20260502041540 31 227 1.0 3.0 0.00 0.00 0.00 91 1019.1
20260502040045 31 227 1.0 2.0 0.00 0.00 0.00 90 1019.1
20260502034532 32 227 1.0 2.0 0.00 0.00 0.00 90 1019.1
20260502033030 33 227 1.0 4.0 0.00 0.00 0.00 88 1019.1
20260502031527 34 227 2.0 4.0 0.00 0.00 0.00 87 1019.2
20260502030026 34 219 1.0 3.0 0.00 0.00 0.00 86 1019.2
20260502024530 35 227 1.0 4.0 0.00 0.00 0.00 85 1019.2
20260502023026 35 225 1.0 4.0 0.00 0.00 0.00 85 1019.3
20260502021525 36 224 2.0 5.0 0.00 0.00 0.00 85 1019.4
20260502020024 36 228 2.0 6.0 0.00 0.00 0.00 85 1019.3
20260502014525 36 292 2.0 4.0 0.00 0.00 0.00 85 1019.2
20260502013023 36 286 2.0 4.0 0.00 0.00 0.00 84 1019.2
20260502011525 36 294 2.0 6.0 0.00 0.00 0.00 83 1019.1
20260502010020 37 290 3.0 8.0 0.00 0.00 0.00 82 1018.9
20260502004520 37 285 3.0 7.0 0.00 0.00 0.00 81 1018.9
20260502003019 37 301 5.0 11.0 0.00 0.00 0.00 80 1018.9
20260502001521 37 299 1.0 8.0 0.00 0.00 0.00 77 1018.9
20260502000016 37 277 6.0 11.0 0.00 0.00 0.00 78 1018.7
20260501234516 38 294 5.0 11.0 0.00 0.00 0.00 77 1018.6
20260501233021 38 294 6.0 12.0 0.00 0.00 0.00 77 1018.7
20260501231515 38 323 5.0 12.0 0.00 0.00 0.00 77 1018.8
20260501230015 38 283 7.0 14.0 0.00 0.00 0.00 76 1018.7
20260501224514 38 279 5.0 10.0 0.00 0.00 0.00 77 1018.6
20260501223014 38 224 4.0 11.0 0.00 0.00 0.00 80 1018.6
20260501221513 38 288 5.0 13.0 0.00 0.00 0.00 81 1018.8
20260501220018 39 34 6.0 15.0 0.00 0.00 0.00 73 1018.5
20260501214510 40 324 5.0 14.0 0.00 0.00 0.00 68 1018.1
20260501213009 41 273 9.0 19.0 0.00 0.00 0.00 65 1018.1
20260501211508 41 318 4.0 14.0 0.00 0.00 0.00 67 1017.9
20260501210010 40 269 7.0 15.0 0.00 0.00 0.00 68 1017.8
20260501204506 40 329 8.0 15.0 0.00 0.00 0.00 70 1017.9
20260501203008 40 275 4.0 15.0 0.00 0.00 0.00 71 1018.0
20260501201506 40 223 7.0 19.0 0.00 0.00 0.00 74 1017.9
20260501200004 41 296 9.0 16.0 0.00 0.00 0.00 72 1017.9
20260501194506 42 298 8.0 16.0 0.00 0.00 0.00 71 1017.9
20260501193004 40 261 9.0 17.0 0.00 0.00 0.00 70 1017.9
20260501191502 40 345 6.0 15.0 0.00 0.00 0.00 72 1017.9
20260501190001 41 306 5.0 13.0 0.00 0.00 0.00 69 1017.8
20260501184602 40 284 7.0 15.0 0.00 0.00 0.00 72 1017.7
20260501183106 40 15 5.0 13.0 0.00 0.00 0.00 74 1017.7
20260501181609 40 360 4.0 14.0 0.00 0.00 0.00 75 1017.6
20260501180057 42 298 6.0 13.0 0.00 0.00 0.00 71 1017.7
20260501174557 41 242 8.0 15.0 0.00 0.00 0.00 70 1017.6
20260501173107 41 32 6.0 13.0 0.00 0.00 0.00 71 1017.6
20260501171557 41 342 3.0 11.0 0.00 0.00 0.00 72 1017.5
20260501164551 40 331 3.0 12.0 0.00 0.00 0.00 76 1017.5